Regional Weather Roundup
Issued by NWS Sioux Falls, SD

Home | Current Version | Previous Version | Graphics & Text | Print | Product List | Glossary Off
Versions: 1 2 3 4 5 6 7 8 9 10 11 12 13 14 15 16 17 18 19 20 21 22 23 24 25 26 27 28 29 30 31 32 33 34 35 36 37 38 39 40 41 42 43 44 45 46 47 48 49 50

000
ASUS43 KFSD 311710
RWRFSD

WEATHER ROUNDUP FOR SE SOUTH DAKOTA/SW MINNESOTA/NW IOWA
NATIONAL WEATHER SERVICE SIOUX FALLS SD
1200 PM CDT THU JUL 31 2014

NOTE: "FAIR" INDICATES FEW OR NO CLOUDS BELOW 12,000 FEET WITH NO
SIGNIFICANT WEATHER AND OR OBSTRUCTIONS TO VISIBILITY.


SDZ038>040-050-052>070-311800-
SOUTHEAST SOUTH DAKOTA

CITY           SKY/WX    TMP DP  RH WIND       PRES   REMARKS
CHAMBERLAIN    SUNNY     80  60  50 SE6       30.08F
HURON          MOSUNNY   78  57  48 NE6       30.08S
MADISON        FAIR      75  57  53 CALM      30.10S
MITCHELL       PTSUNNY   77  63  61 NE7       30.09R
SIOUX FALLS    MOSUNNY   77  59  53 CALM      30.08F
WINNER         FAIR      81  57  43 E7        30.10S
YANKTON        MOSUNNY   73  61  64 E8        30.08S
$$

MNZ071-072-080-081-089-090-097-098-311800-
SOUTHWEST MINNESOTA

CITY           SKY/WX    TMP DP  RH WIND       PRES   REMARKS
FAIRMONT       PTSUNNY   79  50  36 W5        30.08S
JACKSON        MOSUNNY   73  54  49 CALM      30.09F
LUVERNE        SUNNY     77  61  57 SW3       30.09S
MARSHALL       SUNNY     79  52  38 N5        30.07
MONTEVIDEO     SUNNY     81  59  47 NW6       30.07F
PIPESTONE      MOSUNNY   75  57  53 CALM      30.09S
REDWOOD FALLS  SUNNY     79  55  43 W5        30.06F
TRACY          PTSUNNY   78  56  46 N5        30.08S
WINDOM         MOSUNNY   75  54  46 CALM      30.08F
WORTHINGTON    SUNNY     73  54  49 W3        30.10F
$$

IAZ001>003-012>014-020>022-031-032-NEZ013-014-SDZ071-311800-
NORTHWEST IOWA

CITY           SKY/WX    TMP DP  RH WIND       PRES   REMARKS
CHEROKEE       MOSUNNY   77  57  49 S3        30.09S
DENISON        MOSUNNY   75  57  53 CALM      30.09F
ESTHERVILLE    MOSUNNY   75  57  53 NW7       30.08F
LE MARS        PTSUNNY   73  63  68 VRB6      30.09S
ORANGE CITY    MOSUNNY   75  57  53 SW3       30.09S
SHELDON        SUNNY     77  59  53 CALM      30.08F
SIOUX CITY     CLOUDY    68  63  84 S3        30.09F
SPENCER        MOSUNNY   77  57  50 CALM      30.09F
STORM LAKE     SUNNY     75  59  57 SW5       30.11F
$$

ABBREVIATIONS USED IN REMARKS
   TC - TEMPERATURE IN CELSIUS
  WCI - WIND CHILL INDEX
   HX - HEAT INDEX
  VSB - VISIBILITY



USA.gov is the U.S. government's official web portal to all federal, state and local government web resources and services.